Provincetown, MA

7:14 PM EST on November 18, 2017 (GMT -0500)
Provincetown Municipal

Weather History for KPVC - February, 2014

Change the Weather History Date:

Saturday, February 8, 2014

  Actual Average Record
Temperature  
Mean Temperature 24 °F -  
Max Temperature 28 °F 35 °F 48 °F (2009)
Min Temperature 21 °F 25 °F 17 °F (2000)
Degree Days  
Heating Degree Days 40    
Moisture  
Dew Point 10 °F    
Average Humidity 50    
Maximum Humidity 69    
Minimum Humidity 43    
Precipitation  
Precipitation 0.16 in - - ()
Sea Level Pressure  
Sea Level Pressure 30.21 in    
Wind  
Wind Speed 13 mph (West)    
Max Wind Speed 22 mph    
Max Gust Speed 28 mph    
Visibility 10 miles    
Events      
Averages and records for this station are not official NWS values.
T = Trace of Precipitation, MM = Missing Value Source: NWS Daily Summary

Daily Weather History Graph

Daily Weather History Graph

Search for Another Location

Airport or City:

Trip Planner

Search our weather history database for the weather conditions in past years. The results will help you decide how hot, cold, wet, or windy it might be!

Date:

Astronomy

Feb. 08, 2014 Rise Set
Actual Time 6:45 AM EST 5:04 PM EST
Civil Twilight 6:16 AM EST 5:33 PM EST
Nautical Twilight 5:43 AM EST 6:06 PM EST
Astronomical Twilight 5:11 AM EST 6:39 PM EST
Moon 11:54 AM EST (2/8) 1:56 AM EST (2/8)
Length of Visible Light 11h 16m
Length of Day
10h 18m
Waxing Gibbous, 68% of the Moon is Illuminated
Feb 8
Waxing Gibbous
Feb 14
Full
Feb 22
Last Quarter
Mar 1
New
Mar 8
First Quarter

Hourly Weather History & Observations

Time (EST) Temp. Windchill Dew Point Humidity Pressure Visibility Wind Dir Wind Speed Gust Speed Precip Events Conditions
12:15 AM 28.4 °F 16.2 °F 17.6 °F 64% 30.22 in 10.0 mi West 17.3 mph - N/A   Clear
12:35 AM 26.6 °F 15.7 °F 17.6 °F 69% 30.21 in 10.0 mi West 12.7 mph - N/A   Clear
12:55 AM 26.6 °F 16.8 °F 15.8 °F 64% 30.20 in 10.0 mi West 10.4 mph - 0.01 in   Clear
1:15 AM 26.6 °F 15.7 °F 12.2 °F 55% 30.21 in 10.0 mi WNW 12.7 mph - N/A   Clear
1:35 AM 26.6 °F 14.7 °F 12.2 °F 55% 30.21 in 10.0 mi WNW 15.0 mph 18.4 mph N/A   Clear
1:55 AM 26.6 °F 14.3 °F 10.4 °F 51% 30.21 in 10.0 mi WNW 16.1 mph 20.7 mph 0.01 in   Clear
2:15 AM 26.6 °F 13.8 °F 10.4 °F 51% 30.21 in 10.0 mi WNW 17.3 mph - N/A   Clear
2:35 AM 26.6 °F 13.1 °F 10.4 °F 51% 30.22 in 10.0 mi WNW 19.6 mph 26.5 mph N/A   Clear
2:55 AM 26.6 °F 12.4 °F 8.6 °F 47% 30.22 in 10.0 mi WNW 21.9 mph 27.6 mph N/A   Clear
3:15 AM 26.6 °F 13.4 °F 8.6 °F 47% 30.22 in 10.0 mi WNW 18.4 mph 27.6 mph N/A   Clear
3:35 AM 26.6 °F 14.7 °F 10.4 °F 51% 30.23 in 10.0 mi West 15.0 mph 25.3 mph N/A   Clear
3:55 AM 26.6 °F 14.7 °F 8.6 °F 47% 30.24 in 10.0 mi West 15.0 mph 20.7 mph N/A   Clear
4:15 AM 24.8 °F 11.5 °F 10.4 °F 54% 30.24 in 10.0 mi West 17.3 mph 23.0 mph N/A   Clear
4:35 AM 24.8 °F 11.1 °F 8.6 °F 50% 30.24 in 10.0 mi West 18.4 mph 24.2 mph N/A   Clear
4:55 AM 24.8 °F 11.1 °F 10.4 °F 54% 30.24 in 10.0 mi West 18.4 mph 26.5 mph N/A   Clear
5:15 AM 24.8 °F 10.7 °F 8.6 °F 50% 30.24 in 10.0 mi West 19.6 mph 26.5 mph N/A   Clear
5:35 AM 24.8 °F 10.0 °F 10.4 °F 54% 30.25 in 10.0 mi West 21.9 mph 27.6 mph N/A   Clear
5:55 AM 24.8 °F 11.5 °F 10.4 °F 54% 30.26 in 10.0 mi West 17.3 mph 24.2 mph N/A   Clear
6:15 AM 23.0 °F 8.3 °F 10.4 °F 59% 30.26 in 10.0 mi WNW 19.6 mph 26.5 mph N/A   Clear
6:35 AM 23.0 °F 9.6 °F 10.4 °F 59% 30.27 in 10.0 mi WNW 16.1 mph 24.2 mph N/A   Clear
6:55 AM 23.0 °F 8.3 °F 8.6 °F 54% 30.27 in 10.0 mi WNW 19.6 mph 25.3 mph N/A   Clear
7:15 AM 21.2 °F 7.3 °F 10.4 °F 63% 30.28 in 10.0 mi West 16.1 mph 23.0 mph N/A   Clear
7:35 AM 23.0 °F 8.3 °F 10.4 °F 59% 30.28 in 10.0 mi WNW 19.6 mph 24.2 mph 0.01 in   Clear
7:55 AM 23.0 °F 9.2 °F 6.8 °F 50% 30.29 in 10.0 mi WNW 17.3 mph 26.5 mph 0.02 in   Clear
8:15 AM 23.0 °F 8.7 °F 5.0 °F 46% 30.29 in 10.0 mi WNW 18.4 mph 23.0 mph N/A   Clear
8:35 AM 23.0 °F 9.6 °F 6.8 °F 50% 30.29 in 10.0 mi WNW 16.1 mph 23.0 mph N/A   Clear
8:55 AM 23.0 °F 9.2 °F 6.8 °F 50% 30.29 in 10.0 mi WNW 17.3 mph 20.7 mph N/A   Clear
9:15 AM 23.0 °F 11.1 °F 6.8 °F 50% 30.29 in 10.0 mi WNW 12.7 mph 20.7 mph N/A   Clear
9:35 AM 23.0 °F 11.1 °F 6.8 °F 50% 30.29 in 10.0 mi WNW 12.7 mph 19.6 mph N/A   Clear
9:55 AM 24.8 °F 11.9 °F 8.6 °F 50% 30.29 in 10.0 mi WNW 16.1 mph 20.7 mph N/A   Clear
10:15 AM 24.8 °F 12.4 °F 8.6 °F 50% 30.29 in 10.0 mi WNW 15.0 mph 18.4 mph N/A   Clear
10:35 AM 24.8 °F 12.9 °F 8.6 °F 50% 30.28 in 10.0 mi WNW 13.8 mph - 0.01 in   Clear
10:55 AM 24.8 °F 13.4 °F 8.6 °F 50% 30.28 in 10.0 mi WNW 12.7 mph - 0.01 in   Clear
11:15 AM 24.8 °F 14.6 °F 6.8 °F 46% 30.27 in 10.0 mi West 10.4 mph - N/A   Clear
11:35 AM 24.8 °F 15.3 °F 8.6 °F 50% 30.25 in 10.0 mi WNW 9.2 mph - 0.01 in   Clear
11:55 AM 26.6 °F 17.5 °F 8.6 °F 47% 30.25 in 10.0 mi WNW 9.2 mph - 0.03 in   Clear
12:15 PM 26.6 °F 18.2 °F 8.6 °F 47% 30.24 in 10.0 mi WNW 8.1 mph - 0.01 in   Clear
12:35 PM 26.6 °F 19.1 °F 8.6 °F 47% 30.22 in 10.0 mi WNW 6.9 mph - 0.01 in   Clear
12:55 PM 26.6 °F 18.2 °F 8.6 °F 47% 30.21 in 10.0 mi West 8.1 mph - 0.01 in   Clear
1:15 PM 26.6 °F 20.0 °F 6.8 °F 43% 30.19 in 10.0 mi WNW 5.8 mph - N/A   Clear
1:35 PM 26.6 °F 19.1 °F 8.6 °F 47% 30.20 in 10.0 mi West 6.9 mph - N/A   Clear
1:55 PM 26.6 °F 19.1 °F 6.8 °F 43% 30.19 in 10.0 mi West 6.9 mph - N/A   Clear
2:15 PM 26.6 °F 19.1 °F 8.6 °F 47% 30.20 in 10.0 mi West 6.9 mph - N/A   Clear
2:35 PM 26.6 °F 19.1 °F 8.6 °F 47% 30.20 in 10.0 mi West 6.9 mph - N/A   Clear
2:55 PM 26.6 °F 20.0 °F 8.6 °F 47% 30.19 in 10.0 mi West 5.8 mph - N/A   Clear
3:15 PM 26.6 °F 22.6 °F 8.6 °F 47% 30.19 in 10.0 mi WSW 3.5 mph - N/A   Clear
3:35 PM 26.6 °F 19.1 °F 8.6 °F 47% 30.20 in 10.0 mi SSW 6.9 mph - N/A   Clear
3:55 PM 26.6 °F 20.0 °F 10.4 °F 51% 30.20 in 10.0 mi South 5.8 mph - N/A   Clear
4:15 PM 26.6 °F - 10.4 °F 51% 30.21 in 10.0 mi Calm Calm - N/A   Clear
4:35 PM 26.6 °F - 10.4 °F 51% 30.21 in 10.0 mi Calm Calm - N/A   Clear
4:55 PM 28.4 °F 20.4 °F 12.2 °F 51% 30.21 in 10.0 mi SSW 8.1 mph - N/A   Partly Cloudy
5:15 PM 28.4 °F 21.2 °F 14.0 °F 55% 30.20 in 10.0 mi SSW 6.9 mph - N/A   Partly Cloudy
5:35 PM 28.4 °F 19.1 °F 15.8 °F 59% 30.20 in 10.0 mi SW 10.4 mph - N/A   Clear
5:55 PM 28.4 °F 18.5 °F 15.8 °F 59% 30.20 in 10.0 mi SW 11.5 mph - N/A   Partly Cloudy
6:15 PM 28.4 °F 19.1 °F 12.2 °F 51% 30.20 in 10.0 mi SW 10.4 mph - N/A   Scattered Clouds
6:35 PM 28.4 °F 18.5 °F 10.4 °F 47% 30.19 in 10.0 mi WSW 11.5 mph 18.4 mph N/A   Scattered Clouds
6:55 PM 28.4 °F 20.4 °F 12.2 °F 51% 30.18 in 10.0 mi WSW 8.1 mph - N/A   Partly Cloudy
7:15 PM 28.4 °F 21.2 °F 14.0 °F 55% 30.16 in 10.0 mi West 6.9 mph - N/A   Clear
7:35 PM 28.4 °F 21.2 °F 10.4 °F 47% 30.15 in 10.0 mi WNW 6.9 mph - 0.02 in   Clear
7:55 PM 28.4 °F 20.4 °F 8.6 °F 43% 30.15 in 10.0 mi WNW 8.1 mph - 0.05 in   Clear
8:15 PM 28.4 °F 19.7 °F 10.4 °F 47% 30.15 in 10.0 mi West 9.2 mph - N/A   Scattered Clouds
8:35 PM 28.4 °F 20.4 °F 10.4 °F 47% 30.14 in 10.0 mi WNW 8.1 mph - N/A   Scattered Clouds
8:55 PM 28.4 °F 22.2 °F 8.6 °F 43% 30.14 in 10.0 mi WNW 5.8 mph - N/A   Mostly Cloudy
9:15 PM 28.4 °F 21.2 °F 10.4 °F 47% 30.14 in 10.0 mi WNW 6.9 mph - 0.01 in   Mostly Cloudy
9:35 PM 28.4 °F 22.2 °F 10.4 °F 47% 30.14 in 10.0 mi WNW 5.8 mph - 0.01 in   Clear
9:55 PM 28.4 °F 22.2 °F 10.4 °F 47% 30.14 in 10.0 mi WNW 5.8 mph - 0.01 in   Mostly Cloudy
10:15 PM 28.4 °F 22.2 °F 8.6 °F 43% 30.14 in 10.0 mi NW 5.8 mph - N/A   Overcast
10:35 PM 28.4 °F 22.2 °F 10.4 °F 47% 30.13 in 10.0 mi WNW 5.8 mph - N/A   Overcast
10:55 PM 28.4 °F 19.7 °F 8.6 °F 43% 30.13 in 10.0 mi WNW 9.2 mph - N/A   Overcast
11:15 PM 28.4 °F 22.2 °F 8.6 °F 43% 30.12 in 10.0 mi WNW 5.8 mph - N/A   Overcast
11:35 PM 28.4 °F 21.2 °F 10.4 °F 47% 30.12 in 10.0 mi NW 6.9 mph - 0.01 in   Overcast
11:55 PM 28.4 °F 20.4 °F 10.4 °F 47% 30.11 in 10.0 mi NW 8.1 mph - 0.01 in   Overcast